owner,sensor,date,latitude,longitude,vertical_datum,wind_speed,wind_to_direction,wind_speed_of_gust,qcFlag 
TCOON,ioos:station:TCOON:057:1,2015-10-01T00:00:00Z,28.4460,-96.3961,0.0,3.0,135.0,3.6,'11111222,11111222,11111222' 
TCOON,ioos:station:TCOON:057:1,2015-10-01T00:06:00Z,28.4460,-96.3961,0.0,3.1,120.0,3.5,'11111222,11111222,11111222' 
TCOON,ioos:station:TCOON:057:1,2015-10-01T00:12:00Z,28.4460,-96.3961,0.0,3.1,120.0,3.5,'1111122,1111122,1111122' 
TCOON,ioos:station:TCOON:057:1,2015-10-01T00:18:00Z,28.4460,-96.3961,0.0,3.2,125.0,3.6,'11111222,11111222,11111222' 
TCOON,ioos:station:TCOON:057:1,2015-10-01T00:24:00Z,28.4460,-96.3961,0.0,2.7,126.0,3.4,'11111222,11111222,11111222' 
TCOON,ioos:station:TCOON:057:1,2015-10-01T00:30:00Z,28.4460,-96.3961,0.0,2.8,137.0,3.3,'11111222,11111222,11111222' 
TCOON,ioos:station:TCOON:057:1,2015-10-01T00:36:00Z,28.4460,-96.3961,0.0,2.5,126.0,2.9,'11111222,11111222,11111222' 
TCOON,ioos:station:TCOON:057:1,2015-10-01T00:42:00Z,28.4460,-96.3961,0.0,2.8,126.0,3.2,'11111222,11111222,11111222' 
TCOON,ioos:station:TCOON:057:1,2015-10-01T00:48:00Z,28.4460,-96.3961,0.0,2.8,127.0,3.1,'11111222,11111222,11111222' 
TCOON,ioos:station:TCOON:057:1,2015-10-01T00:54:00Z,28.4460,-96.3961,0.0,2.8,125.0,3.3,'11111222,11111222,11111222' 
TCOON,ioos:station:TCOON:057:1,2015-10-01T01:00:00Z,28.4460,-96.3961,0.0,2.6,127.0,3.1,'11111222,11111222,11111222' 
TCOON,ioos:station:TCOON:057:1,2015-10-01T01:06:00Z,28.4460,-96.3961,0.0,3.1,121.0,3.4,'11111222,11111222,11111222' 
TCOON,ioos:station:TCOON:057:1,2015-10-01T01:12:00Z,28.4460,-96.3961,0.0,3.1,121.0,3.4,'1111122,1111122,1111122' 
TCOON,ioos:station:TCOON:057:1,2015-10-01T01:18:00Z,28.4460,-96.3961,0.0,2.9,114.0,3.6,'11111222,11111222,11111222' 
TCOON,ioos:station:TCOON:057:1,2015-10-01T01:24:00Z,28.4460,-96.3961,0.0,2.4,128.0,3.0,'11111222,11111222,11111222' 
TCOON,ioos:station:TCOON:057:1,2015-10-01T01:30:00Z,28.4460,-96.3961,0.0,2.5,120.0,2.9,'11111222,11111222,11111222' 
TCOON,ioos:station:TCOON:057:1,2015-10-01T01:36:00Z,28.4460,-96.3961,0.0,2.6,112.0,2.9,'11111222,11111222,11111222' 
TCOON,ioos:station:TCOON:057:1,2015-10-01T01:42:00Z,28.4460,-96.3961,0.0,2.5,118.0,2.8,'11111222,11111222,11111222' 
TCOON,ioos:station:TCOON:057:1,2015-10-01T01:48:00Z,28.4460,-96.3961,0.0,2.6,122.0,3.0,'11111222,11111222,11111222' 
TCOON,ioos:station:TCOON:057:1,2015-10-01T01:54:00Z,28.4460,-96.3961,0.0,2.5,127.0,2.9,'11111222,11111222,11111222' 
TCOON,ioos:station:TCOON:057:1,2015-10-01T02:00:00Z,28.4460,-96.3961,0.0,2.6,129.0,2.9,'11111222,11111222,11111222' 
TCOON,ioos:station:TCOON:057:1,2015-10-01T02:06:00Z,28.4460,-96.3961,0.0,1.9,132.0,2.6,'11111222,11111222,11111222' 
TCOON,ioos:station:TCOON:057:1,2015-10-01T02:12:00Z,28.4460,-96.3961,0.0,1.9,132.0,2.6,'1111122,1111122,1111122' 
TCOON,ioos:station:TCOON:057:1,2015-10-01T02:18:00Z,28.4460,-96.3961,0.0,1.9,110.0,2.3,'11111222,11111222,11111222' 
TCOON,ioos:station:TCOON:057:1,2015-10-01T02:24:00Z,28.4460,-96.3961,0.0,2.1,103.0,2.2,'11111222,11111222,11111222' 
TCOON,ioos:station:TCOON:057:1,2015-10-01T02:30:00Z,28.4460,-96.3961,0.0,2.2,113.0,2.5,'11111222,11111222,11111222' 
TCOON,ioos:station:TCOON:057:1,2015-10-01T02:36:00Z,28.4460,-96.3961,0.0,2.1,109.0,2.5,'11111222,11111222,11111222' 
TCOON,ioos:station:TCOON:057:1,2015-10-01T02:42:00Z,28.4460,-96.3961,0.0,1.9,114.0,2.1,'11111222,11111222,11111222' 
TCOON,ioos:station:TCOON:057:1,2015-10-01T02:48:00Z,28.4460,-96.3961,0.0,2.2,115.0,2.6,'11111222,11111222,11111222' 
TCOON,ioos:station:TCOON:057:1,2015-10-01T02:54:00Z,28.4460,-96.3961,0.0,2.4,111.0,2.7,'11111222,11111222,11111222' 
TCOON,ioos:station:TCOON:057:1,2015-10-01T03:00:00Z,28.4460,-96.3961,0.0,2.6,108.0,2.8,'11111222,11111222,11111222' 
TCOON,ioos:station:TCOON:057:1,2015-10-01T03:06:00Z,28.4460,-96.3961,0.0,2.6,107.0,3.1,'11111222,11111222,11111222' 
TCOON,ioos:station:TCOON:057:1,2015-10-01T03:12:00Z,28.4460,-96.3961,0.0,2.5,102.0,2.8,'11111222,11111222,11111222' 
TCOON,ioos:station:TCOON:057:1,2015-10-01T03:18:00Z,28.4460,-96.3961,0.0,2.7,104.0,2.9,'11111222,11111222,11111222' 
TCOON,ioos:station:TCOON:057:1,2015-10-01T03:24:00Z,28.4460,-96.3961,0.0,2.7,104.0,2.9,'1111122,1111122,1111122' 
TCOON,ioos:station:TCOON:057:1,2015-10-01T03:30:00Z,28.4460,-96.3961,0.0,2.6,95.0,3.0,'11111222,11111222,11111222' 
TCOON,ioos:station:TCOON:057:1,2015-10-01T03:36:00Z,28.4460,-96.3961,0.0,2.2,97.0,2.6,'11111222,11111222,11111222' 
TCOON,ioos:station:TCOON:057:1,2015-10-01T03:42:00Z,28.4460,-96.3961,0.0,2.4,102.0,2.7,'11111222,11111222,11111222' 
TCOON,ioos:station:TCOON:057:1,2015-10-01T03:48:00Z,28.4460,-96.3961,0.0,2.1,101.0,2.8,'11111222,11111222,11111222' 
TCOON,ioos:station:TCOON:057:1,2015-10-01T03:54:00Z,28.4460,-96.3961,0.0,2.2,110.0,2.6,'11111222,11111222,11111222' 
TCOON,ioos:station:TCOON:057:1,2015-10-01T04:00:00Z,28.4460,-96.3961,0.0,2.0,117.0,2.3,'11111222,11111222,11111222' 
TCOON,ioos:station:TCOON:057:1,2015-10-01T04:06:00Z,28.4460,-96.3961,0.0,2.0,124.0,2.3,'11111222,11111222,11111222' 
TCOON,ioos:station:TCOON:057:1,2015-10-01T04:12:00Z,28.4460,-96.3961,0.0,2.0,124.0,2.3,'1111122,1111122,1111122' 
TCOON,ioos:station:TCOON:057:1,2015-10-01T04:18:00Z,28.4460,-96.3961,0.0,1.7,118.0,2.0,'11111222,11111222,11111222' 
TCOON,ioos:station:TCOON:057:1,2015-10-01T04:24:00Z,28.4460,-96.3961,0.0,1.2,123.0,1.8,'11111222,11111222,11111222' 
TCOON,ioos:station:TCOON:057:1,2015-10-01T04:30:00Z,28.4460,-96.3961,0.0,1.1,129.0,1.3,'11111222,11111222,11111222' 
TCOON,ioos:station:TCOON:057:1,2015-10-01T04:36:00Z,28.4460,-96.3961,0.0,1.2,141.0,1.4,'11111222,11111222,11111222' 
TCOON,ioos:station:TCOON:057:1,2015-10-01T04:42:00Z,28.4460,-96.3961,0.0,1.0,141.0,1.4,'11111222,11111222,11111222' 
TCOON,ioos:station:TCOON:057:1,2015-10-01T04:48:00Z,28.4460,-96.3961,0.0,0.9,157.0,1.2,'11111222,11111222,11111222' 
TCOON,ioos:station:TCOON:057:1,2015-10-01T04:54:00Z,28.4460,-96.3961,0.0,0.9,163.0,1.1,'11111222,11111222,11111222' 
TCOON,ioos:station:TCOON:057:1,2015-10-01T05:00:00Z,28.4460,-96.3961,0.0,0.8,184.0,1.3,'11111222,11111222,11111222' 
TCOON,ioos:station:TCOON:057:1,2015-10-01T05:06:00Z,28.4460,-96.3961,0.0,0.8,224.0,1.0,'11111222,11111222,11111222' 
TCOON,ioos:station:TCOON:057:1,2015-10-01T05:12:00Z,28.4460,-96.3961,0.0,0.7,235.0,1.0,'11111222,11111222,11111222' 
TCOON,ioos:station:TCOON:057:1,2015-10-01T05:18:00Z,28.4460,-96.3961,0.0,0.8,254.0,1.0,'11111222,11111222,11111222' 
TCOON,ioos:station:TCOON:057:1,2015-10-01T05:24:00Z,28.4460,-96.3961,0.0,0.7,256.0,0.8,'11111222,11111222,11111222' 
TCOON,ioos:station:TCOON:057:1,2015-10-01T05:30:00Z,28.4460,-96.3961,0.0,0.7,256.0,0.8,'1111122,1111122,1111122' 
TCOON,ioos:station:TCOON:057:1,2015-10-01T05:36:00Z,28.4460,-96.3961,0.0,1.3,271.0,1.5,'11111222,11111222,11111222' 
TCOON,ioos:station:TCOON:057:1,2015-10-01T05:42:00Z,28.4460,-96.3961,0.0,1.1,268.0,1.4,'11111222,11111222,11111222' 
TCOON,ioos:station:TCOON:057:1,2015-10-01T05:48:00Z,28.4460,-96.3961,0.0,1.2,270.0,1.4,'11111222,11111222,11111222' 
TCOON,ioos:station:TCOON:057:1,2015-10-01T05:54:00Z,28.4460,-96.3961,0.0,1.5,271.0,1.7,'11111222,11111222,11111222' 
TCOON,ioos:station:TCOON:057:1,2015-10-01T06:00:00Z,28.4460,-96.3961,0.0,1.6,273.0,2.1,'11111222,11111222,11111222' 
TCOON,ioos:station:TCOON:057:1,2015-10-01T06:06:00Z,28.4460,-96.3961,0.0,1.6,275.0,1.9,'11111222,11111222,11111222' 
TCOON,ioos:station:TCOON:057:1,2015-10-01T06:12:00Z,28.4460,-96.3961,0.0,1.9,279.0,2.0,'11111222,11111222,11111222' 
TCOON,ioos:station:TCOON:057:1,2015-10-01T06:18:00Z,28.4460,-96.3961,0.0,1.8,275.0,2.1,'11111222,11111222,11111222' 
TCOON,ioos:station:TCOON:057:1,2015-10-01T06:24:00Z,28.4460,-96.3961,0.0,1.8,275.0,2.1,'1111122,1111122,1111122' 
TCOON,ioos:station:TCOON:057:1,2015-10-01T06:30:00Z,28.4460,-96.3961,0.0,1.6,266.0,1.8,'11111222,11111222,11111222' 
TCOON,ioos:station:TCOON:057:1,2015-10-01T06:36:00Z,28.4460,-96.3961,0.0,1.3,276.0,1.6,'11111222,11111222,11111222' 
TCOON,ioos:station:TCOON:057:1,2015-10-01T06:42:00Z,28.4460,-96.3961,0.0,1.5,270.0,1.9,'11111222,11111222,11111222' 
TCOON,ioos:station:TCOON:057:1,2015-10-01T06:48:00Z,28.4460,-96.3961,0.0,2.3,264.0,2.5,'11111222,11111222,11111222' 
TCOON,ioos:station:TCOON:057:1,2015-10-01T06:54:00Z,28.4460,-96.3961,0.0,1.8,266.0,2.5,'11111222,11111222,11111222' 
TCOON,ioos:station:TCOON:057:1,2015-10-01T07:00:00Z,28.4460,-96.3961,0.0,1.7,275.0,2.3,'11111222,11111222,11111222' 
TCOON,ioos:station:TCOON:057:1,2015-10-01T07:06:00Z,28.4460,-96.3961,0.0,1.9,270.0,2.4,'11111222,11111222,11111222' 
TCOON,ioos:station:TCOON:057:1,2015-10-01T07:12:00Z,28.4460,-96.3961,0.0,2.0,269.0,2.3,'11111222,11111222,11111222' 
TCOON,ioos:station:TCOON:057:1,2015-10-01T07:18:00Z,28.4460,-96.3961,0.0,2.2,272.0,2.7,'11111222,11111222,11111222' 
TCOON,ioos:station:TCOON:057:1,2015-10-01T07:24:00Z,28.4460,-96.3961,0.0,2.3,270.0,2.7,'11111222,11111222,11111222' 
TCOON,ioos:station:TCOON:057:1,2015-10-01T07:30:00Z,28.4460,-96.3961,0.0,2.3,270.0,2.8,'11111222,11111222,11111222' 
TCOON,ioos:station:TCOON:057:1,2015-10-01T07:36:00Z,28.4460,-96.3961,0.0,2.2,271.0,2.7,'11111222,11111222,11111222' 
TCOON,ioos:station:TCOON:057:1,2015-10-01T07:42:00Z,28.4460,-96.3961,0.0,2.4,269.0,2.8,'11111222,11111222,11111222' 
TCOON,ioos:station:TCOON:057:1,2015-10-01T07:48:00Z,28.4460,-96.3961,0.0,2.5,271.0,3.2,'11111222,11111222,11111222' 
TCOON,ioos:station:TCOON:057:1,2015-10-01T07:54:00Z,28.4460,-96.3961,0.0,2.7,278.0,3.2,'11111222,11111222,11111222' 
TCOON,ioos:station:TCOON:057:1,2015-10-01T08:00:00Z,28.4460,-96.3961,0.0,2.5,274.0,3.0,'11111222,11111222,11111222' 
TCOON,ioos:station:TCOON:057:1,2015-10-01T08:06:00Z,28.4460,-96.3961,0.0,2.3,264.0,3.0,'11111222,11111222,11111222' 
TCOON,ioos:station:TCOON:057:1,2015-10-01T08:12:00Z,28.4460,-96.3961,0.0,2.6,271.0,3.0,'11111222,11111222,11111222' 
TCOON,ioos:station:TCOON:057:1,2015-10-01T08:18:00Z,28.4460,-96.3961,0.0,3.2,272.0,3.9,'11111222,11111222,11111222' 
TCOON,ioos:station:TCOON:057:1,2015-10-01T08:24:00Z,28.4460,-96.3961,0.0,3.2,272.0,3.9,'1111122,1111122,1111122' 
TCOON,ioos:station:TCOON:057:1,2015-10-01T08:30:00Z,28.4460,-96.3961,0.0,2.5,277.0,3.5,'11111222,11111222,11111222' 
TCOON,ioos:station:TCOON:057:1,2015-10-01T08:36:00Z,28.4460,-96.3961,0.0,2.5,278.0,3.0,'11111222,11111222,11111222' 
TCOON,ioos:station:TCOON:057:1,2015-10-01T08:42:00Z,28.4460,-96.3961,0.0,2.8,276.0,3.4,'11111222,11111222,11111222' 
TCOON,ioos:station:TCOON:057:1,2015-10-01T08:48:00Z,28.4460,-96.3961,0.0,2.9,272.0,3.6,'11111222,11111222,11111222' 
TCOON,ioos:station:TCOON:057:1,2015-10-01T08:54:00Z,28.4460,-96.3961,0.0,2.5,284.0,3.6,'11111222,11111222,11111222' 
TCOON,ioos:station:TCOON:057:1,2015-10-01T09:00:00Z,28.4460,-96.3961,0.0,2.7,286.0,3.2,'11111222,11111222,11111222' 
TCOON,ioos:station:TCOON:057:1,2015-10-01T09:06:00Z,28.4460,-96.3961,0.0,3.3,285.0,4.3,'11111222,11111222,11111222' 
TCOON,ioos:station:TCOON:057:1,2015-10-01T09:12:00Z,28.4460,-96.3961,0.0,3.4,288.0,4.0,'11111222,11111222,11111222' 
TCOON,ioos:station:TCOON:057:1,2015-10-01T09:18:00Z,28.4460,-96.3961,0.0,3.5,289.0,3.9,'11111222,11111222,11111222' 
TCOON,ioos:station:TCOON:057:1,2015-10-01T09:24:00Z,28.4460,-96.3961,0.0,3.5,289.0,3.9,'1111122,1111122,1111122' 
TCOON,ioos:station:TCOON:057:1,2015-10-01T09:30:00Z,28.4460,-96.3961,0.0,3.5,290.0,4.1,'11111222,11111222,11111222' 
TCOON,ioos:station:TCOON:057:1,2015-10-01T09:36:00Z,28.4460,-96.3961,0.0,3.1,295.0,3.8,'11111222,11111222,11111222' 
TCOON,ioos:station:TCOON:057:1,2015-10-01T09:42:00Z,28.4460,-96.3961,0.0,3.3,299.0,4.0,'11111222,11111222,11111222' 
TCOON,ioos:station:TCOON:057:1,2015-10-01T09:48:00Z,28.4460,-96.3961,0.0,3.3,297.0,4.0,'11111222,11111222,11111222' 
TCOON,ioos:station:TCOON:057:1,2015-10-01T09:54:00Z,28.4460,-96.3961,0.0,3.3,297.0,3.8,'11111222,11111222,11111222' 
TCOON,ioos:station:TCOON:057:1,2015-10-01T10:00:00Z,28.4460,-96.3961,0.0,3.7,298.0,4.3,'11111222,11111222,11111222' 
TCOON,ioos:station:TCOON:057:1,2015-10-01T10:06:00Z,28.4460,-96.3961,0.0,3.9,297.0,4.6,'11111222,11111222,11111222' 
TCOON,ioos:station:TCOON:057:1,2015-10-01T10:12:00Z,28.4460,-96.3961,0.0,3.9,299.0,4.4,'11111222,11111222,11111222' 
TCOON,ioos:station:TCOON:057:1,2015-10-01T10:18:00Z,28.4460,-96.3961,0.0,3.7,297.0,4.4,'11111222,11111222,11111222' 
TCOON,ioos:station:TCOON:057:1,2015-10-01T10:24:00Z,28.4460,-96.3961,0.0,3.7,297.0,4.4,'1111122,1111122,1111122' 
TCOON,ioos:station:TCOON:057:1,2015-10-01T10:30:00Z,28.4460,-96.3961,0.0,3.9,294.0,4.4,'11111222,11111222,11111222' 
TCOON,ioos:station:TCOON:057:1,2015-10-01T10:36:00Z,28.4460,-96.3961,0.0,3.8,297.0,4.5,'11111222,11111222,11111222' 
TCOON,ioos:station:TCOON:057:1,2015-10-01T10:42:00Z,28.4460,-96.3961,0.0,3.9,298.0,4.4,'11111222,11111222,11111222' 
TCOON,ioos:station:TCOON:057:1,2015-10-01T10:48:00Z,28.4460,-96.3961,0.0,3.9,299.0,4.3,'11111222,11111222,11111222' 
TCOON,ioos:station:TCOON:057:1,2015-10-01T10:54:00Z,28.4460,-96.3961,0.0,3.8,299.0,4.5,'11111222,11111222,11111222' 
TCOON,ioos:station:TCOON:057:1,2015-10-01T11:00:00Z,28.4460,-96.3961,0.0,4.3,300.0,4.8,'11111222,11111222,11111222' 
TCOON,ioos:station:TCOON:057:1,2015-10-01T11:06:00Z,28.4460,-96.3961,0.0,4.1,303.0,4.8,'11111222,11111222,11111222' 
TCOON,ioos:station:TCOON:057:1,2015-10-01T11:12:00Z,28.4460,-96.3961,0.0,4.1,303.0,4.8,'1111122,1111122,1111122' 
TCOON,ioos:station:TCOON:057:1,2015-10-01T11:18:00Z,28.4460,-96.3961,0.0,3.6,300.0,4.0,'11111222,11111222,11111222' 
TCOON,ioos:station:TCOON:057:1,2015-10-01T11:24:00Z,28.4460,-96.3961,0.0,3.0,297.0,3.8,'11111222,11111222,11111222' 
TCOON,ioos:station:TCOON:057:1,2015-10-01T11:30:00Z,28.4460,-96.3961,0.0,3.2,294.0,3.8,'11111222,11111222,11111222' 
TCOON,ioos:station:TCOON:057:1,2015-10-01T11:36:00Z,28.4460,-96.3961,0.0,3.2,294.0,3.8,'11111222,11111222,11111222' 
TCOON,ioos:station:TCOON:057:1,2015-10-01T11:42:00Z,28.4460,-96.3961,0.0,3.2,294.0,3.5,'11111222,11111222,11111222' 
TCOON,ioos:station:TCOON:057:1,2015-10-01T11:48:00Z,28.4460,-96.3961,0.0,3.3,295.0,3.8,'11111222,11111222,11111222' 
TCOON,ioos:station:TCOON:057:1,2015-10-01T11:54:00Z,28.4460,-96.3961,0.0,3.2,301.0,3.6,'11111222,11111222,11111222' 
TCOON,ioos:station:TCOON:057:1,2015-10-01T12:00:00Z,28.4460,-96.3961,0.0,3.3,305.0,3.8,'11111222,11111222,11111222' 
TCOON,ioos:station:TCOON:057:1,2015-10-01T12:06:00Z,28.4460,-96.3961,0.0,3.5,306.0,3.9,'11111222,11111222,11111222' 
TCOON,ioos:station:TCOON:057:1,2015-10-01T12:12:00Z,28.4460,-96.3961,0.0,3.0,309.0,4.0,'11111222,11111222,11111222' 
TCOON,ioos:station:TCOON:057:1,2015-10-01T12:18:00Z,28.4460,-96.3961,0.0,3.0,309.0,4.0,'1111122,1111122,1111122' 
TCOON,ioos:station:TCOON:057:1,2015-10-01T12:24:00Z,28.4460,-96.3961,0.0,5.7,349.0,6.6,'11111222,11111222,11111222' 
TCOON,ioos:station:TCOON:057:1,2015-10-01T12:30:00Z,28.4460,-96.3961,0.0,6.3,0.0,9.8,'11111222,11111222,11111222' 
TCOON,ioos:station:TCOON:057:1,2015-10-01T12:36:00Z,28.4460,-96.3961,0.0,6.5,9.0,7.3,'11111222,11111222,11111222' 
TCOON,ioos:station:TCOON:057:1,2015-10-01T12:42:00Z,28.4460,-96.3961,0.0,5.6,2.0,7.2,'11111222,11111222,11111222' 
TCOON,ioos:station:TCOON:057:1,2015-10-01T12:48:00Z,28.4460,-96.3961,0.0,5.1,352.0,7.1,'11111222,11111222,11111222' 
TCOON,ioos:station:TCOON:057:1,2015-10-01T12:54:00Z,28.4460,-96.3961,0.0,4.4,340.0,5.7,'11111222,11111222,11111222' 
TCOON,ioos:station:TCOON:057:1,2015-10-01T13:00:00Z,28.4460,-96.3961,0.0,4.5,332.0,5.2,'11111222,11111222,11111222' 
TCOON,ioos:station:TCOON:057:1,2015-10-01T13:06:00Z,28.4460,-96.3961,0.0,5.0,334.0,5.5,'11111222,11111222,11111222' 
TCOON,ioos:station:TCOON:057:1,2015-10-01T13:12:00Z,28.4460,-96.3961,0.0,4.7,328.0,5.4,'11111222,11111222,11111222' 
TCOON,ioos:station:TCOON:057:1,2015-10-01T13:18:00Z,28.4460,-96.3961,0.0,4.7,328.0,5.4,'1111122,1111122,1111122' 
TCOON,ioos:station:TCOON:057:1,2015-10-01T13:24:00Z,28.4460,-96.3961,0.0,4.6,332.0,5.0,'11111222,11111222,11111222' 
TCOON,ioos:station:TCOON:057:1,2015-10-01T13:30:00Z,28.4460,-96.3961,0.0,4.4,330.0,5.0,'11111222,11111222,11111222' 
TCOON,ioos:station:TCOON:057:1,2015-10-01T13:36:00Z,28.4460,-96.3961,0.0,4.5,328.0,5.1,'11111222,11111222,11111222' 
TCOON,ioos:station:TCOON:057:1,2015-10-01T13:42:00Z,28.4460,-96.3961,0.0,4.0,339.0,4.7,'11111222,11111222,11111222' 
TCOON,ioos:station:TCOON:057:1,2015-10-01T13:48:00Z,28.4460,-96.3961,0.0,4.4,351.0,5.5,'11111222,11111222,11111222' 
TCOON,ioos:station:TCOON:057:1,2015-10-01T13:54:00Z,28.4460,-96.3961,0.0,4.2,354.0,4.8,'11111222,11111222,11111222' 
TCOON,ioos:station:TCOON:057:1,2015-10-01T14:00:00Z,28.4460,-96.3961,0.0,3.6,1.0,4.3,'11111222,11111222,11111222' 
TCOON,ioos:station:TCOON:057:1,2015-10-01T14:06:00Z,28.4460,-96.3961,0.0,3.5,7.0,4.2,'11111222,11111222,11111222' 
TCOON,ioos:station:TCOON:057:1,2015-10-01T14:12:00Z,28.4460,-96.3961,0.0,3.9,18.0,4.1,'11111222,11111222,11111222' 
TCOON,ioos:station:TCOON:057:1,2015-10-01T14:18:00Z,28.4460,-96.3961,0.0,3.8,15.0,4.2,'11111222,11111222,11111222' 
TCOON,ioos:station:TCOON:057:1,2015-10-01T14:24:00Z,28.4460,-96.3961,0.0,3.0,7.0,4.1,'11111222,11111222,11111222' 
TCOON,ioos:station:TCOON:057:1,2015-10-01T14:30:00Z,28.4460,-96.3961,0.0,2.8,4.0,3.6,'11111222,11111222,11111222' 
TCOON,ioos:station:TCOON:057:1,2015-10-01T14:36:00Z,28.4460,-96.3961,0.0,2.8,3.0,3.4,'11111222,11111222,11111222' 
TCOON,ioos:station:TCOON:057:1,2015-10-01T14:42:00Z,28.4460,-96.3961,0.0,2.8,3.0,3.4,'1111122,1111122,1111122' 
TCOON,ioos:station:TCOON:057:1,2015-10-01T14:48:00Z,28.4460,-96.3961,0.0,2.3,352.0,2.9,'11111222,11111222,11111222' 
TCOON,ioos:station:TCOON:057:1,2015-10-01T14:54:00Z,28.4460,-96.3961,0.0,2.0,0.0,2.7,'11111222,11111222,11111222' 
TCOON,ioos:station:TCOON:057:1,2015-10-01T15:00:00Z,28.4460,-96.3961,0.0,1.8,358.0,2.7,'11111222,11111222,11111222' 
TCOON,ioos:station:TCOON:057:1,2015-10-01T15:06:00Z,28.4460,-96.3961,0.0,1.9,7.0,2.5,'11111222,11111222,11111222' 
TCOON,ioos:station:TCOON:057:1,2015-10-01T15:12:00Z,28.4460,-96.3961,0.0,2.0,13.0,2.3,'11111222,11111222,11111222' 
TCOON,ioos:station:TCOON:057:1,2015-10-01T15:18:00Z,28.4460,-96.3961,0.0,1.9,17.0,2.7,'11111222,11111222,11111222' 
TCOON,ioos:station:TCOON:057:1,2015-10-01T15:24:00Z,28.4460,-96.3961,0.0,1.9,17.0,2.7,'1111122,1111122,1111122' 
TCOON,ioos:station:TCOON:057:1,2015-10-01T15:30:00Z,28.4460,-96.3961,0.0,2.0,19.0,2.8,'11111222,11111222,11111222' 
TCOON,ioos:station:TCOON:057:1,2015-10-01T15:36:00Z,28.4460,-96.3961,0.0,2.5,24.0,3.0,'11111222,11111222,11111222' 
TCOON,ioos:station:TCOON:057:1,2015-10-01T15:42:00Z,28.4460,-96.3961,0.0,2.4,34.0,3.0,'11111222,11111222,11111222' 
TCOON,ioos:station:TCOON:057:1,2015-10-01T15:48:00Z,28.4460,-96.3961,0.0,2.4,32.0,2.9,'11111222,11111222,11111222' 
TCOON,ioos:station:TCOON:057:1,2015-10-01T15:54:00Z,28.4460,-96.3961,0.0,2.5,24.0,3.4,'11111222,11111222,11111222' 
TCOON,ioos:station:TCOON:057:1,2015-10-01T16:00:00Z,28.4460,-96.3961,0.0,2.8,29.0,3.1,'11111222,11111222,11111222' 
TCOON,ioos:station:TCOON:057:1,2015-10-01T16:06:00Z,28.4460,-96.3961,0.0,2.6,32.0,3.2,'11111222,11111222,11111222' 
TCOON,ioos:station:TCOON:057:1,2015-10-01T16:12:00Z,28.4460,-96.3961,0.0,3.0,34.0,3.5,'11111222,11111222,11111222' 
TCOON,ioos:station:TCOON:057:1,2015-10-01T16:18:00Z,28.4460,-96.3961,0.0,3.0,34.0,3.5,'1111122,1111122,1111122' 
TCOON,ioos:station:TCOON:057:1,2015-10-01T16:24:00Z,28.4460,-96.3961,0.0,2.9,19.0,3.3,'11111222,11111222,11111222' 
TCOON,ioos:station:TCOON:057:1,2015-10-01T16:30:00Z,28.4460,-96.3961,0.0,2.8,17.0,3.1,'11111222,11111222,11111222' 
TCOON,ioos:station:TCOON:057:1,2015-10-01T16:36:00Z,28.4460,-96.3961,0.0,2.8,26.0,3.2,'11111222,11111222,11111222' 
TCOON,ioos:station:TCOON:057:1,2015-10-01T16:42:00Z,28.4460,-96.3961,0.0,2.6,32.0,3.0,'11111222,11111222,11111222' 
TCOON,ioos:station:TCOON:057:1,2015-10-01T16:48:00Z,28.4460,-96.3961,0.0,2.8,40.0,3.3,'11111222,11111222,11111222' 
TCOON,ioos:station:TCOON:057:1,2015-10-01T16:54:00Z,28.4460,-96.3961,0.0,3.0,43.0,3.3,'11111222,11111222,11111222' 
TCOON,ioos:station:TCOON:057:1,2015-10-01T17:00:00Z,28.4460,-96.3961,0.0,3.0,39.0,3.4,'11111222,11111222,11111222' 
TCOON,ioos:station:TCOON:057:1,2015-10-01T17:06:00Z,28.4460,-96.3961,0.0,3.1,40.0,3.8,'11111222,11111222,11111222' 
TCOON,ioos:station:TCOON:057:1,2015-10-01T17:12:00Z,28.4460,-96.3961,0.0,3.2,36.0,3.7,'11111222,11111222,11111222' 
TCOON,ioos:station:TCOON:057:1,2015-10-01T17:18:00Z,28.4460,-96.3961,0.0,3.2,36.0,3.7,'1111122,1111122,1111122' 
TCOON,ioos:station:TCOON:057:1,2015-10-01T17:24:00Z,28.4460,-96.3961,0.0,3.3,41.0,3.7,'11111222,11111222,11111222' 
TCOON,ioos:station:TCOON:057:1,2015-10-01T17:30:00Z,28.4460,-96.3961,0.0,3.4,38.0,3.9,'11111222,11111222,11111222' 
TCOON,ioos:station:TCOON:057:1,2015-10-01T17:36:00Z,28.4460,-96.3961,0.0,3.4,46.0,3.8,'11111222,11111222,11111222' 
TCOON,ioos:station:TCOON:057:1,2015-10-01T17:42:00Z,28.4460,-96.3961,0.0,3.4,46.0,3.7,'11111222,11111222,11111222' 
TCOON,ioos:station:TCOON:057:1,2015-10-01T17:48:00Z,28.4460,-96.3961,0.0,3.6,53.0,4.0,'11111222,11111222,11111222' 
TCOON,ioos:station:TCOON:057:1,2015-10-01T17:54:00Z,28.4460,-96.3961,0.0,3.6,45.0,4.1,'11111222,11111222,11111222' 
TCOON,ioos:station:TCOON:057:1,2015-10-01T18:00:00Z,28.4460,-96.3961,0.0,3.2,38.0,3.9,'11111222,11111222,11111222' 
TCOON,ioos:station:TCOON:057:1,2015-10-01T18:06:00Z,28.4460,-96.3961,0.0,3.5,42.0,3.9,'11111222,11111222,11111222' 
TCOON,ioos:station:TCOON:057:1,2015-10-01T18:12:00Z,28.4460,-96.3961,0.0,3.4,35.0,3.8,'11111222,11111222,11111222' 
TCOON,ioos:station:TCOON:057:1,2015-10-01T18:18:00Z,28.4460,-96.3961,0.0,3.6,43.0,3.8,'11111222,11111222,11111222' 
TCOON,ioos:station:TCOON:057:1,2015-10-01T18:24:00Z,28.4460,-96.3961,0.0,3.6,43.0,3.8,'1111122,1111122,1111122' 
TCOON,ioos:station:TCOON:057:1,2015-10-01T18:30:00Z,28.4460,-96.3961,0.0,3.6,52.0,4.1,'11111222,11111222,11111222' 
TCOON,ioos:station:TCOON:057:1,2015-10-01T18:36:00Z,28.4460,-96.3961,0.0,3.7,56.0,4.3,'11111222,11111222,11111222' 
TCOON,ioos:station:TCOON:057:1,2015-10-01T18:42:00Z,28.4460,-96.3961,0.0,3.5,57.0,4.0,'11111222,11111222,11111222' 
TCOON,ioos:station:TCOON:057:1,2015-10-01T18:48:00Z,28.4460,-96.3961,0.0,3.2,60.0,3.7,'11111222,11111222,11111222' 
TCOON,ioos:station:TCOON:057:1,2015-10-01T18:54:00Z,28.4460,-96.3961,0.0,2.9,65.0,3.7,'11111222,11111222,11111222' 
TCOON,ioos:station:TCOON:057:1,2015-10-01T19:00:00Z,28.4460,-96.3961,0.0,3.2,60.0,3.5,'11111222,11111222,11111222' 
TCOON,ioos:station:TCOON:057:1,2015-10-01T19:06:00Z,28.4460,-96.3961,0.0,2.8,62.0,3.4,'11111222,11111222,11111222' 
TCOON,ioos:station:TCOON:057:1,2015-10-01T19:12:00Z,28.4460,-96.3961,0.0,3.0,62.0,3.9,'11111222,11111222,11111222' 
TCOON,ioos:station:TCOON:057:1,2015-10-01T19:18:00Z,28.4460,-96.3961,0.0,3.0,62.0,3.9,'1111122,1111122,1111122' 
TCOON,ioos:station:TCOON:057:1,2015-10-01T19:24:00Z,28.4460,-96.3961,0.0,2.9,71.0,3.3,'11111222,11111222,11111222' 
TCOON,ioos:station:TCOON:057:1,2015-10-01T19:30:00Z,28.4460,-96.3961,0.0,3.8,92.0,4.6,'11111222,11111222,11111222' 
TCOON,ioos:station:TCOON:057:1,2015-10-01T19:36:00Z,28.4460,-96.3961,0.0,4.2,92.0,5.3,'11111222,11111222,11111222' 
TCOON,ioos:station:TCOON:057:1,2015-10-01T19:42:00Z,28.4460,-96.3961,0.0,4.3,95.0,5.0,'11111222,11111222,11111222' 
TCOON,ioos:station:TCOON:057:1,2015-10-01T19:48:00Z,28.4460,-96.3961,0.0,4.3,93.0,4.9,'11111222,11111222,11111222' 
TCOON,ioos:station:TCOON:057:1,2015-10-01T19:54:00Z,28.4460,-96.3961,0.0,4.1,93.0,5.1,'11111222,11111222,11111222' 
TCOON,ioos:station:TCOON:057:1,2015-10-01T20:00:00Z,28.4460,-96.3961,0.0,4.8,97.0,5.4,'11111222,11111222,11111222' 
TCOON,ioos:station:TCOON:057:1,2015-10-01T20:06:00Z,28.4460,-96.3961,0.0,4.9,99.0,5.5,'11111222,11111222,11111222' 
TCOON,ioos:station:TCOON:057:1,2015-10-01T20:12:00Z,28.4460,-96.3961,0.0,4.5,100.0,5.2,'11111222,11111222,11111222' 
TCOON,ioos:station:TCOON:057:1,2015-10-01T20:18:00Z,28.4460,-96.3961,0.0,3.8,101.0,5.1,'11111222,11111222,11111222' 
TCOON,ioos:station:TCOON:057:1,2015-10-01T20:24:00Z,28.4460,-96.3961,0.0,3.8,101.0,5.1,'1111122,1111122,1111122' 